Vertical_Velocity
-4 -2 -6 -13 -8 1 5 -18 0 9 -2 -0 -2 6 6 -1 -1 11 6 2 -0 -6 -3 -0 1 0 0 -2 -0 0 2 4 4 -6 0 16 2 7 2 1 4 1 0
-9 -5 -10 -7 0 17 11 5 -3 5 -1 5 2 3 -0 1 3 1 3 -2 1 1 -2 2 -3 -0 -2 -3 0 0 -0 1 -0 1 -4 -3 -1 13 2 -6 0 4 -3
-10 -9 -4 -3 0 11 8 4 -6 6 -2 -7 14 -1 3 4 1 -3 -4 -3 1 1 -2 -1 1 -1 -3 -2 -1 1 -1 2 -2 0 -5 1 4 -6 1 -1 -0 2 1
-3 -3 -3 1 -1 4 -2 1 -7 4 3 4 9 9 5 -1 1 -3 -2 -2 4 2 1 -4 -2 -1 -2 -1 -2 -0 1 -2 3 -5 4 -1 8 -1 -1 1 12 8 4
-8 -3 8 8 3 4 -2 -3 5 1 -3 2 6 3 4 0 5 -0 -1 -3 -0 -3 -1 2 -2 -1 -4 -3 -2 -2 0 -2 0 -4 -1 -1 0 0 5 3 1 -1 -0
-10 -6 4 16 1 4 1 5 2 21 6 9 5 10 3 3 3 -4 -2 -1 -3 -4 -1 -1 -1 -1 -0 0 -3 1 0 2 1 2 0 -2 -1 1 1 -1 4 -2 -1
-4 8 28 7 4 6 4 6 6 3 5 3 2 -2 -0 2 -0 -0 -1 0 1 1 0 -1 -1 -0 1 0 -2 -3 -1 4 -1 3 3 -2 -1 -2 0 -2 8 3 1
0 1 3 -0 -1 6 7 4 5 3 5 5 6 4 2 -2 1 1 -2 1 1 -0 1 -3 -0 -1 -2 2 1 -0 1 -0 0 -1 -2 2 3 -2 2 1 1 -0 3
-4 -0 -0 -1 2 0 -1 1 3 7 8 1 -2 1 2 0 -0 -1 -2 -1 -2 -3 -3 -5 -1 -3 -3 -3 -1 1 1 -2 -1 0 5 7 4 5 7 3 2 4 -5
3 -0 -0 -3 -4 -0 -1 -0 -1 1 1 1 2 3 5 6 4 3 2 -0 -3 1 -2 -2 -4 -3 -3 -2 -4 1 -2 2 -3 1 3 3 7 8 8 11 9 3 -0
-3 1 0 0 1 -1 0 0 -1 -1 2 2 -0 -1 -2 -1 0 -1 3 1 0 -5 -2 -4 -1 -1 -3 1 -4 -1 -1 2 -1 -1 4 1 5 4 6 6 2 -1 -0
3 2 6 -5 -3 1 2 0 1 1 1 1 4 16 7 2 3 4 8 4 11 4 -1 1 -2 -1 1 -1 3 -1 3 2 1 6 -2 0 7 2 1 3 -0 0 2
-0 1 4 7 4 3 2 2 2 0 -1 2 1 2 4 3 2 1 2 4 4 2 -1 3 1 0 2 3 1 2 3 2 0 7 4 8 11 5 5 5 -1 -0 4
-1 -2 -1 -0 3 4 1 3 2 1 3 3 2 1 7 12 9 9 8 9 8 5 6 6 5 6 4 3 2 1 -1 -1 -1 -1 1 3 6 9 8 3 6 5 4
4 1 3 3 1 2 3 2 -1 0 -0 3 8 0 1 -2 -4 -9 -3 -6 0 -1 0 -2 -1 -2 -0 -0 0 1 1 4 2 3 2 -2 1 -2 -9 -10 -4 3 6
0 3 2 2 4 3 2 2 2 3 3 2 1 -1 0 -1 1 0 -0 0 2 4 2 1 1 -0 -3 -4 -0 2 -3 -3 -1 -1 -2 3 3 -4 0 2 2 -2 -0
2 1 2 2 0 1 2 2 3 2 2 1 1 1 2 3 3 2 1 1 -0 1 0 0 1 -0 -4 -2 2 -1 2 1 1 3 4 -0 -1 -2 1 1 -2 4 5
0 2 1 0 0 1 1 1 -0 -1 -1 -1 -0 0 -0 0 1 1 2 3 2 1 3 1 -1 1 -3 -7 -6 -6 -3 0 3 -0 -1 -2 5 -0 -3 -0 0 0 1
2 2 2 2 2 2 2 1 1 1 1 1 1 1 1 0 2 0 2 -1 -0 -2 0 -0 1 -1 3 1 2 -0 0 -0 0 -0 0 1 3 9 7 -7 0 4 5
-0 -0 1 2 1 0 1 1 0 -1 -1 -0 1 2 2 -0 -0 -1 -1 -2 -4 2 -1 2 -5 -1 3 -1 0 -3 0 5 6 3 2 4 5 10 10 7 3 9 17
0 0 -0 0 1 1 1 1 0 1 2 2 2 1 1 3 3 3 0 2 4 6 2 5 4 1 -4 -1 -7 -6 -7 -7 -5 -9 -3 -3 -9 -9 2 3 1 3 13
-2 -1 -0 -0 -1 -0 1 3 2 1 1 1 1 -1 -4 -6 -4 -1 2 -3 -5 -5 -9 -7 -4 -7 -3 -5 -7 -6 -5 -3 -7 -2 1 2 6 -3 -6 -4 4 -1 2
-1 -1 -1 1 1 1 1 2 1 -0 -1 -3 -2 -1 -2 -2 -7 -8 -8 -5 -3 3 2 -2 -3 -3 -2 -4 -6 -6 -7 -2 -8 -6 -5 -0 7 4 3 1 1 -0 -1
-2 -2 -2 -2 -1 1 2 -1 -1 -2 -1 -2 -2 -4 -5 -3 -4 -4 -3 -1 -7 -3 -4 -2 -0 -2 2 -4 -7 -3 -7 -7 -4 -10 -2 -2 -3 1 4 1 1 -1 0
1 1 -0 -1 -1 -1 0 1 1 -0 -2 -3 -2 -3 -4 -3 2 -4 -1 1 -7 -7 -3 -1 -1 -5 3 1 -4 -4 -5 -8 -5 -7 -2 -3 -6 -3 0 1 3 4 2
2 1 1 -0 -1 -2 -3 -2 -1 -1 -3 -3 -4 -6 -4 -5 -3 1 8 -14 -10 -4 -7 -12 -12 -1 -10 -8 -6 -3 -6 -3 -5 -4 -6 -4 -4 -4 -1 2 3 3 1
Height
5653 5644 5636 5639 5646 5654 5656 5662 5667 5681 5690 5701 5711 5719 5725 5729 5736 5740 5745 5750 5753 5758 5763 5765 5766 5770 5771 5773 5773 5774 5773 5775 5776 5776 5781 5784 5788 5788 5790 5794 5797 5800 5800
5632 5615 5607 5605 5612 5625 5634 5640 5650 5662 5676 5689 5698 5705 5710 5717 5723 5729 5733 5740 5744 5749 5752 5756 5756 5757 5761 5762 5763 5764 5762 5764 5764 5768 5771 5773 5777 5780 5783 5782 5785 5787 5787
5611 5596 5590 5587 5589 5600 5609 5621 5638 5651 5668 5682 5687 5694 5701 5707 5712 5717 5723 5728 5734 5738 5742 5744 5745 5747 5750 5751 5751 5752 5753 5753 5754 5756 5759 5760 5764 5765 5768 5770 5771 5773 5774
5613 5597 5587 5585 5584 5589 5596 5608 5624 5643 5663 5668 5676 5683 5690 5696 5702 5707 5713 5718 5724 5728 5731 5735 5736 5737 5739 5740 5740 5739 5741 5740 5743 5746 5748 5751 5753 5754 5757 5759 5761 5758 5760
5610 5598 5589 5585 5584 5586 5592 5602 5617 5635 5648 5659 5666 5672 5679 5686 5690 5696 5703 5709 5713 5717 5722 5724 5726 5727 5728 5729 5729 5728 5728 5729 5731 5735 5738 5739 5741 5743 5745 5747 5749 5748 5748
5609 5600 5595 5591 5587 5588 5595 5604 5618 5632 5642 5650 5658 5665 5670 5675 5680 5686 5693 5697 5703 5708 5711 5713 5715 5718 5720 5720 5718 5718 5718 5720 5722 5724 5727 5730 5732 5734 5733 5733 5734 5732 5733
5611 5603 5600 5598 5597 5597 5602 5610 5621 5630 5639 5646 5653 5658 5662 5668 5673 5678 5683 5688 5692 5696 5699 5703 5705 5708 5710 5711 5711 5710 5710 5711 5713 5715 5717 5718 5719 5722 5722 5721 5722 5720 5721
5613 5609 5606 5604 5604 5604 5608 5615 5623 5630 5636 5642 5646 5651 5655 5660 5666 5671 5675 5680 5683 5686 5689 5692 5695 5698 5698 5700 5700 5699 5700 5701 5703 5704 5707 5707 5708 5709 5709 5709 5708 5709 5709
5615 5611 5608 5607 5607 5608 5611 5616 5622 5628 5633 5637 5641 5645 5650 5654 5659 5664 5668 5672 5675 5678 5681 5683 5685 5686 5687 5687 5687 5688 5689 5689 5690 5691 5693 5694 5696 5697 5698 5698 5698 5698 5698
5618 5615 5612 5611 5611 5612 5614 5617 5621 5625 5629 5632 5636 5640 5644 5649 5653 5657 5660 5663 5666 5669 5672 5673 5675 5676 5674 5675 5676 5677 5678 5678 5677 5680 5682 5683 5684 5685 5687 5687 5688 5687 5687
5619 5617 5616 5616 5616 5617 5618 5620 5623 5625 5628 5631 5634 5638 5642 5645 5648 5651 5654 5656 5658 5660 5662 5664 5664 5663 5662 5663 5665 5667 5666 5667 5667 5669 5669 5669 5669 5671 5671 5673 5674 5674 5675
5625 5621 5619 5619 5619 5620 5621 5622 5624 5626 5628 5631 5634 5636 5639 5641 5643 5644 5647 5649 5650 5652 5652 5654 5655 5654 5654 5655 5655 5654 5654 5656 5657 5658 5658 5658 5657 5657 5658 5659 5660 5661 5662
5630 5628 5626 5625 5624 5623 5624 5625 5626 5628 5629 5631 5633 5635 5637 5638 5639 5640 5641 5642 5644 5644 5644 5645 5645 5646 5647 5646 5645 5644 5645 5645 5646 5646 5646 5648 5646 5646 5646 5647 5648 5648 5649
5637 5633 5630 5629 5628 5627 5627 5627 5628 5630 5630 5632 5632 5633 5634 5635 5635 5635 5636 5637 5638 5638 5637 5637 5637 5637 5638 5638 5637 5636 5636 5636 5635 5635 5635 5636 5635 5635 5635 5635 5635 5635 5636
5640 5637 5635 5632 5631 5630 5630 5629 5628 5629 5629 5630 5631 5631 5632 5632 5632 5633 5633 5632 5632 5632 5631 5630 5629 5629 5628 5628 5627 5627 5626 5624 5624 5624 5623 5624 5622 5622 5624 5626 5626 5626 5626
5642 5640 5638 5636 5635 5633 5632 5631 5630 5630 5629 5629 5629 5629 5628 5628 5628 5628 5628 5627 5626 5625 5623 5622 5621 5620 5619 5618 5616 5616 5615 5614 5613 5611 5611 5611 5610 5610 5610 5609 5610 5612 5612
5641 5639 5638 5636 5635 5633 5631 5630 5628 5627 5626 5625 5624 5623 5623 5622 5622 5622 5620 5619 5617 5615 5614 5612 5610 5609 5606 5604 5603 5602 5600 5599 5598 5596 5595 5594 5593 5592 5592 5593 5595 5595 5595
5640 5638 5636 5634 5633 5631 5630 5628 5626 5624 5622 5621 5619 5618 5616 5614 5613 5611 5609 5607 5605 5603 5600 5598 5596 5594 5591 5589 5587 5585 5583 5581 5579 5577 5576 5575 5574 5571 5571 5571 5573 5575 5576
5636 5634 5632 5630 5628 5626 5624 5622 5621 5618 5616 5615 5612 5610 5608 5605 5603 5600 5597 5594 5592 5589 5586 5582 5579 5576 5572 5569 5566 5563 5560 5558 5555 5553 5551 5550 5549 5547 5545 5546 5546 5549 5549
5632 5630 5628 5626 5624 5622 5619 5617 5615 5613 5610 5607 5604 5601 5598 5595 5592 5589 5585 5581 5577 5573 5568 5564 5559 5555 5552 5547 5543 5539 5536 5533 5530 5527 5523 5519 5516 5514 5512 5511 5514 5518 5520
5626 5624 5622 5620 5617 5614 5611 5609 5606 5603 5600 5597 5594 5590 5586 5582 5578 5573 5568 5563 5558 5552 5546 5542 5536 5531 5526 5521 5516 5510 5505 5501 5498 5494 5490 5485 5480 5478 5477 5474 5476 5480 5482
5618 5616 5614 5611 5609 5605 5602 5599 5595 5591 5588 5584 5580 5575 5570 5565 5559 5554 5548 5541 5536 5532 5527 5522 5515 5508 5501 5494 5490 5485 5478 5472 5467 5463 5456 5449 5443 5435 5431 5428 5429 5432 5436
5610 5607 5604 5601 5599 5596 5592 5588 5584 5580 5575 5570 5566 5561 5555 5548 5542 5536 5531 5525 5519 5512 5504 5497 5491 5485 5476 5467 5459 5451 5443 5433 5424 5419 5412 5404 5395 5388 5382 5380 5383 5385 5392
5601 5597 5594 5591 5588 5584 5580 5575 5571 5566 5561 5556 5550 5544 5538 5532 5525 5517 5510 5501 5494 5489 5482 5474 5467 5457 5447 5435 5426 5416 5404 5391 5378 5367 5360 5352 5348 5346 5345 5345 5347 5352 5360
5589 5586 5582 5578 5574 5570 5566 5562 5557 5552 5546 5541 5535 5529 5522 5515 5506 5496 5489 5482 5472 5464 5457 5448 5439 5429 5419 5404 5390 5377 5364 5351 5341 5332 5326 5319 5315 5315 5315 5317 5321 5327 5335
5578 5573 5569 5565 5561 5557 5553 5548 5541 5537 5532 5526 5519 5511 5504 5496 5488 5481 5471 5459 5451 5440 5428 5418 5409 5397 5381 5368 5353 5340 5330 5320 5311 5305 5301 5298 5296 5295 5296 5297 5301 5307 5314